GEFSSE_prec_meanprecacc_234.txt.gz
Total_Precipitation_Accumulation
1.48 1.30 2.16 2.36 2.15 1.92 1.81 1.78 1.82 1.83 1.86 1.90 1.69 1.39 1.22 1.12 1.02 0.94 0.83 0.79 0.85 0.86 0.82 0.79 0.80 0.77 0.71 0.70 0.68 0.72 0.80 0.91 0.96 0.99 1.04 1.11 1.04 1.07 1.34 1.68 1.85 2.13 1.78
1.20 1.28 2.24 2.43 2.14 1.79 1.65 1.71 1.84 1.83 1.84 1.75 1.65 1.42 1.27 1.11 1.01 0.92 0.79 0.70 0.70 0.74 0.71 0.77 0.85 0.85 0.85 0.87 0.91 0.93 0.92 0.89 1.00 1.11 1.27 1.33 1.22 1.21 1.24 1.54 1.69 1.99 1.82
1.25 1.36 1.98 2.49 2.22 1.91 1.71 1.73 1.85 1.81 1.87 1.73 1.65 1.46 1.29 1.10 1.02 0.93 0.83 0.78 0.78 0.73 0.69 0.75 0.90 0.90 0.93 0.96 1.00 1.07 1.03 0.97 1.07 1.27 1.69 2.33 1.73 1.36 1.36 1.44 1.53 1.51 1.66
1.20 1.27 1.75 2.53 2.20 2.03 1.93 1.93 1.86 1.84 1.90 1.71 1.58 1.43 1.29 1.18 1.14 1.10 1.14 1.16 1.00 0.83 0.78 0.78 0.93 0.91 0.88 0.94 1.04 1.01 0.98 1.02 1.22 1.34 1.78 2.37 2.16 1.50 1.50 1.58 1.64 1.46 1.53
1.21 1.33 2.02 2.52 2.18 2.04 2.00 1.98 1.86 1.94 1.95 1.74 1.53 1.33 1.23 1.23 1.36 1.40 1.36 1.23 1.02 0.87 0.81 0.81 0.88 0.93 0.89 0.85 0.96 0.99 1.01 1.09 1.24 1.28 1.72 2.24 2.45 1.93 1.58 1.59 1.62 1.49 1.53
1.42 1.43 2.04 2.49 2.27 2.08 2.04 1.97 1.88 1.89 1.95 1.85 1.55 1.34 1.24 1.24 1.24 1.25 1.27 1.18 1.02 0.88 0.77 0.84 0.92 0.92 0.91 0.89 0.92 0.98 1.00 1.08 1.06 1.28 1.74 2.09 2.36 1.92 1.49 1.46 1.63 1.62 1.65
1.35 1.41 1.78 2.22 2.10 1.93 1.91 1.92 1.94 1.93 1.91 1.86 1.59 1.43 1.37 1.31 1.18 1.17 1.17 1.10 0.93 0.82 0.78 0.86 0.94 0.93 0.91 0.94 0.89 0.88 0.95 0.88 0.80 1.15 1.56 1.94 1.95 1.74 1.52 1.57 1.74 1.74 1.84
1.32 1.31 1.53 1.97 2.06 1.91 1.84 1.80 1.85 1.87 1.88 1.78 1.47 1.35 1.31 1.29 1.22 1.15 1.12 1.08 0.95 0.95 0.91 0.87 0.87 0.90 0.93 0.94 0.90 0.88 0.90 0.73 0.62 0.89 1.26 1.72 1.91 1.82 1.63 1.59 1.74 1.85 1.99
1.47 1.42 1.50 1.74 1.87 2.11 2.11 1.96 1.91 1.88 1.84 1.73 1.47 1.34 1.27 1.16 1.03 1.00 1.00 0.96 0.99 1.02 0.94 0.85 0.81 0.81 0.87 0.91 0.90 0.91 0.88 0.72 0.67 0.86 0.90 1.43 1.80 1.84 1.71 1.67 1.72 1.83 2.03
1.54 1.48 1.43 1.54 1.58 1.76 1.91 2.03 2.04 1.97 1.88 1.79 1.52 1.38 1.29 1.09 0.94 0.92 0.86 0.90 0.96 1.04 1.08 0.97 0.89 0.88 0.90 0.97 0.97 0.93 0.89 0.71 0.66 0.73 0.94 1.20 1.78 1.84 1.71 1.74 1.74 1.76 1.87
1.41 1.33 1.28 1.32 1.45 1.60 1.79 1.93 2.07 2.00 1.93 1.80 1.57 1.44 1.32 1.04 0.89 0.86 0.81 1.03 1.03 1.06 1.10 1.10 1.12 1.10 1.00 0.95 1.01 0.91 0.71 0.67 0.82 0.88 0.98 1.26 1.86 1.97 1.85 1.77 1.79 1.71 1.64
1.41 1.26 1.07 1.09 1.19 1.32 1.45 1.86 1.88 1.63 1.57 1.46 1.61 1.47 1.28 1.20 1.06 0.73 0.79 1.03 1.19 1.20 1.13 1.09 1.18 1.06 0.84 0.72 0.78 0.71 0.57 0.66 0.78 0.83 0.91 1.44 1.91 1.95 1.76 1.69 1.74 1.63 1.52
1.26 1.17 1.05 0.97 0.94 0.96 1.09 1.34 1.50 1.53 1.57 1.46 1.39 1.30 1.27 1.14 0.94 0.78 0.82 0.83 0.87 0.92 0.86 0.88 0.87 0.73 0.67 0.71 0.71 0.59 0.54 0.63 0.74 0.85 1.02 1.60 2.03 2.01 1.73 1.59 1.62 1.57 1.52
1.07 1.06 0.99 0.85 0.78 0.72 0.75 0.82 0.95 1.13 1.26 1.27 1.09 0.99 1.04 1.07 0.96 0.81 0.81 0.80 0.79 0.83 0.94 0.96 0.96 0.87 0.81 0.79 0.75 0.75 0.74 0.77 0.80 0.90 1.17 1.53 2.02 2.03 1.87 1.75 1.72 1.69 1.62
1.00 1.00 0.90 0.75 0.72 0.67 0.67 0.67 0.65 0.87 1.06 1.16 1.16 0.99 0.93 0.95 0.94 0.89 0.76 0.77 0.72 0.76 0.82 0.87 0.90 0.94 1.00 0.96 0.93 0.96 0.99 0.94 0.85 0.83 1.02 1.35 1.87 2.28 2.35 2.27 2.01 1.91 1.85
0.83 0.94 0.87 0.80 0.80 0.72 0.63 0.62 0.62 0.72 0.86 0.89 1.05 1.05 0.97 0.89 0.85 0.89 0.85 0.85 0.86 0.85 0.83 0.81 0.80 0.93 1.00 1.05 1.03 0.99 0.97 0.87 0.85 0.93 1.09 1.18 1.27 1.68 2.41 2.64 2.46 2.26 2.13
0.74 0.76 0.72 0.71 0.76 0.75 0.72 0.67 0.66 0.78 0.82 0.86 0.90 0.89 0.95 0.85 0.78 0.84 0.88 0.89 0.90 0.90 0.88 0.89 0.90 1.00 1.03 1.13 1.16 1.01 0.94 0.89 0.84 0.90 0.99 1.10 0.92 0.98 1.56 2.22 2.45 2.34 2.34
0.65 0.65 0.66 0.60 0.67 0.77 0.82 0.84 0.87 0.89 0.93 0.98 0.93 0.87 0.86 0.81 0.77 0.86 0.90 0.93 0.98 0.90 0.88 0.98 1.05 1.15 1.18 1.25 1.26 1.07 0.88 0.96 0.90 0.90 1.03 1.07 1.06 0.98 1.14 1.40 1.70 1.96 2.37
0.63 0.63 0.67 0.65 0.69 0.77 0.82 0.92 1.00 1.06 1.14 1.26 1.21 1.16 1.09 0.96 0.96 1.04 1.10 1.11 1.11 1.12 1.06 0.98 1.03 1.19 1.33 1.34 1.17 1.08 0.97 0.98 1.00 0.96 1.14 1.17 1.16 1.16 1.22 1.13 1.18 1.40 1.89
0.71 0.66 0.70 0.76 0.80 0.91 1.06 1.23 1.41 1.52 1.67 1.86 1.80 1.66 1.45 1.27 1.23 1.35 1.35 1.27 1.33 1.44 1.49 1.30 1.35 1.32 1.29 1.37 1.20 1.14 1.11 1.05 1.05 1.11 1.17 1.30 1.43 1.29 1.29 1.22 1.14 1.00 1.27
0.72 0.69 0.67 0.71 0.78 0.89 1.10 1.37 1.77 1.99 2.12 2.11 2.11 2.02 1.79 1.55 1.57 1.76 1.75 1.71 1.70 1.71 1.68 1.62 1.79 1.73 1.46 1.37 1.58 1.57 1.41 1.22 1.17 1.16 1.23 1.47 1.58 1.50 1.52 1.45 1.34 1.18 1.07
0.61 0.63 0.73 0.71 0.75 0.86 1.11 1.38 1.69 2.02 2.08 2.10 2.11 2.07 1.95 1.79 1.78 1.84 2.07 2.16 2.13 2.27 2.25 2.06 2.21 2.23 1.85 1.61 1.91 2.25 1.96 1.72 1.30 1.21 1.34 1.41 1.50 1.58 1.64 1.50 1.36 1.26 1.23
0.53 0.49 0.60 0.69 0.79 1.03 1.33 1.57 1.73 2.00 2.08 2.12 2.08 2.09 2.11 2.04 1.94 1.99 2.12 2.28 2.29 2.38 2.51 2.57 2.49 2.60 2.42 2.01 1.89 2.22 2.16 2.00 1.79 1.43 1.36 1.44 1.60 1.66 1.70 1.68 1.51 1.26 1.24
0.42 0.39 0.46 0.57 0.79 1.14 1.47 1.67 1.88 2.22 2.27 2.18 2.18 2.14 2.15 2.17 2.14 2.24 2.28 2.38 2.38 2.40 2.52 2.61 2.55 2.71 2.81 2.44 2.12 1.91 1.75 1.76 1.92 1.75 1.51 1.47 1.62 1.64 1.64 1.66 1.69 1.53 1.36
0.41 0.42 0.46 0.62 0.87 1.17 1.39 1.64 1.99 2.18 2.24 2.33 2.22 2.17 2.16 2.21 2.23 2.29 2.37 2.54 2.52 2.50 2.48 2.69 2.72 2.82 2.76 2.70 2.56 2.37 2.20 1.97 1.67 1.81 1.85 1.69 1.57 1.47 1.51 1.64 1.80 1.75 1.58
0.42 0.48 0.58 0.75 0.92 1.17 1.38 1.62 1.80 2.00 2.10 2.20 2.26 2.17 2.14 2.19 2.28 2.17 2.09 2.28 2.34 2.37 2.37 2.56 2.72 2.85 2.82 2.84 2.78 2.49 2.45 2.34 2.02 1.99 1.85 1.72 1.73 1.54 1.46 1.53 1.59 1.60 1.62

GEFSSE_prec_meanprecacc_240.txt.gz
Total_Precipitation_Accumulation
1.52 1.34 2.23 2.42 2.20 1.96 1.86 1.83 1.86 1.86 1.89 1.93 1.70 1.41 1.24 1.14 1.05 0.97 0.87 0.82 0.88 0.88 0.83 0.80 0.82 0.78 0.72 0.71 0.69 0.73 0.82 0.93 0.98 1.01 1.06 1.14 1.07 1.10 1.37 1.71 1.87 2.15 1.80
1.23 1.31 2.28 2.47 2.17 1.81 1.69 1.76 1.88 1.85 1.85 1.77 1.67 1.44 1.29 1.13 1.03 0.94 0.82 0.75 0.73 0.75 0.72 0.77 0.86 0.86 0.86 0.88 0.92 0.95 0.93 0.92 1.03 1.13 1.30 1.37 1.25 1.25 1.28 1.58 1.72 2.01 1.84
1.28 1.39 2.01 2.51 2.24 1.92 1.74 1.77 1.88 1.83 1.88 1.74 1.67 1.48 1.31 1.12 1.04 0.95 0.86 0.81 0.81 0.75 0.71 0.77 0.92 0.91 0.94 0.97 1.01 1.08 1.04 1.01 1.11 1.30 1.72 2.34 1.75 1.39 1.39 1.48 1.57 1.54 1.69
1.22 1.29 1.79 2.56 2.23 2.05 1.96 1.96 1.88 1.86 1.92 1.72 1.59 1.46 1.32 1.20 1.16 1.12 1.17 1.19 1.02 0.86 0.80 0.81 0.94 0.92 0.88 0.95 1.05 1.03 1.00 1.06 1.26 1.37 1.79 2.38 2.18 1.54 1.53 1.62 1.69 1.50 1.57
1.23 1.35 2.06 2.55 2.21 2.08 2.04 2.01 1.87 1.95 1.98 1.76 1.55 1.36 1.25 1.26 1.39 1.43 1.39 1.25 1.04 0.89 0.82 0.82 0.89 0.94 0.90 0.87 0.98 1.01 1.04 1.14 1.30 1.31 1.73 2.26 2.48 1.98 1.63 1.63 1.67 1.53 1.56
1.43 1.45 2.06 2.53 2.28 2.09 2.08 2.00 1.90 1.92 1.98 1.88 1.58 1.37 1.26 1.27 1.28 1.29 1.31 1.21 1.03 0.89 0.79 0.86 0.93 0.93 0.92 0.91 0.94 1.00 1.04 1.13 1.09 1.29 1.74 2.10 2.39 1.97 1.53 1.50 1.67 1.64 1.68
1.35 1.43 1.80 2.26 2.12 1.95 1.94 1.94 1.96 1.95 1.94 1.90 1.64 1.46 1.40 1.34 1.23 1.21 1.20 1.13 0.95 0.83 0.79 0.89 0.96 0.94 0.92 0.96 0.91 0.90 0.99 0.92 0.82 1.16 1.57 1.95 1.98 1.79 1.55 1.60 1.79 1.78 1.87
1.33 1.33 1.55 2.00 2.08 1.93 1.87 1.82 1.87 1.89 1.91 1.82 1.52 1.39 1.34 1.33 1.26 1.19 1.15 1.11 0.97 0.96 0.93 0.89 0.89 0.91 0.95 0.96 0.92 0.91 0.94 0.76 0.63 0.90 1.27 1.74 1.96 1.87 1.67 1.64 1.80 1.88 2.02
1.48 1.43 1.51 1.77 1.90 2.14 2.13 1.98 1.94 1.90 1.87 1.77 1.50 1.38 1.30 1.19 1.07 1.04 1.04 0.99 1.01 1.03 0.94 0.86 0.82 0.83 0.89 0.93 0.92 0.94 0.91 0.75 0.68 0.88 0.92 1.46 1.87 1.90 1.75 1.71 1.76 1.86 2.07
1.55 1.50 1.46 1.55 1.60 1.77 1.93 2.05 2.05 1.99 1.91 1.82 1.56 1.41 1.32 1.14 0.98 0.96 0.90 0.94 0.98 1.05 1.09 0.98 0.91 0.90 0.92 0.99 0.99 0.95 0.92 0.72 0.67 0.74 0.97 1.26 1.87 1.90 1.75 1.77 1.77 1.79 1.90
1.43 1.35 1.30 1.33 1.46 1.62 1.81 1.96 2.09 2.02 1.95 1.82 1.61 1.48 1.36 1.09 0.94 0.91 0.85 1.07 1.05 1.07 1.11 1.11 1.14 1.13 1.03 0.98 1.04 0.94 0.72 0.68 0.83 0.89 1.00 1.32 1.94 2.05 1.92 1.81 1.82 1.76 1.67
1.45 1.28 1.10 1.12 1.22 1.34 1.47 1.88 1.90 1.65 1.58 1.48 1.63 1.49 1.33 1.27 1.13 0.77 0.82 1.06 1.21 1.23 1.15 1.11 1.21 1.09 0.85 0.73 0.80 0.74 0.58 0.67 0.80 0.85 0.94 1.52 1.98 2.03 1.83 1.74 1.79 1.69 1.55
1.29 1.20 1.09 1.03 0.98 0.99 1.12 1.37 1.52 1.55 1.58 1.48 1.42 1.33 1.30 1.17 0.97 0.80 0.83 0.84 0.89 0.95 0.87 0.89 0.88 0.74 0.68 0.72 0.72 0.60 0.55 0.64 0.75 0.86 1.05 1.66 2.09 2.07 1.78 1.64 1.66 1.59 1.53
1.10 1.09 1.03 0.93 0.84 0.76 0.78 0.85 0.97 1.15 1.28 1.30 1.13 1.02 1.06 1.08 0.98 0.82 0.82 0.82 0.82 0.85 0.95 0.97 0.96 0.88 0.83 0.81 0.76 0.76 0.75 0.78 0.80 0.90 1.18 1.57 2.07 2.11 1.96 1.83 1.76 1.72 1.65
1.03 1.03 0.94 0.79 0.77 0.70 0.70 0.71 0.68 0.91 1.10 1.19 1.19 1.02 0.96 0.97 0.98 0.93 0.79 0.79 0.74 0.78 0.85 0.89 0.90 0.95 1.02 0.98 0.94 0.97 1.00 0.94 0.85 0.83 1.03 1.38 1.91 2.36 2.44 2.38 2.11 1.97 1.89
0.86 0.98 0.90 0.82 0.83 0.75 0.65 0.65 0.65 0.76 0.90 0.93 1.07 1.08 1.00 0.92 0.89 0.94 0.88 0.88 0.89 0.86 0.84 0.83 0.82 0.95 1.02 1.07 1.04 1.00 0.97 0.87 0.85 0.93 1.09 1.18 1.29 1.73 2.48 2.71 2.53 2.32 2.20
0.77 0.79 0.75 0.74 0.79 0.78 0.74 0.69 0.70 0.82 0.85 0.88 0.93 0.91 0.97 0.89 0.84 0.89 0.91 0.91 0.93 0.92 0.89 0.90 0.92 1.01 1.04 1.14 1.17 1.02 0.94 0.89 0.85 0.90 0.99 1.10 0.93 1.00 1.59 2.26 2.50 2.41 2.41
0.67 0.67 0.69 0.62 0.70 0.80 0.85 0.85 0.90 0.94 0.96 1.00 0.94 0.89 0.88 0.83 0.80 0.90 0.93 0.95 1.00 0.92 0.90 0.98 1.06 1.17 1.20 1.26 1.27 1.09 0.89 0.97 0.91 0.91 1.04 1.08 1.06 0.99 1.16 1.42 1.74 2.00 2.42
0.65 0.66 0.70 0.68 0.72 0.80 0.86 0.95 1.03 1.09 1.15 1.27 1.21 1.17 1.11 0.99 0.99 1.07 1.12 1.13 1.13 1.14 1.07 0.99 1.04 1.20 1.35 1.36 1.19 1.09 0.98 0.99 1.01 0.98 1.15 1.18 1.17 1.16 1.22 1.14 1.19 1.43 1.93
0.73 0.68 0.73 0.80 0.84 0.95 1.10 1.26 1.44 1.54 1.69 1.86 1.80 1.67 1.47 1.30 1.26 1.39 1.38 1.29 1.34 1.45 1.51 1.32 1.38 1.34 1.30 1.38 1.21 1.15 1.13 1.07 1.06 1.12 1.18 1.31 1.44 1.29 1.29 1.22 1.14 1.01 1.30
0.73 0.71 0.70 0.74 0.81 0.94 1.14 1.40 1.80 2.02 2.14 2.12 2.12 2.04 1.81 1.59 1.59 1.79 1.78 1.73 1.72 1.73 1.70 1.64 1.80 1.74 1.46 1.38 1.59 1.58 1.42 1.23 1.17 1.17 1.24 1.48 1.59 1.50 1.53 1.45 1.34 1.18 1.08
0.62 0.64 0.74 0.73 0.78 0.90 1.15 1.42 1.73 2.05 2.10 2.11 2.12 2.09 1.98 1.83 1.81 1.86 2.09 2.19 2.15 2.30 2.27 2.07 2.22 2.25 1.86 1.62 1.92 2.25 1.96 1.72 1.31 1.22 1.35 1.41 1.50 1.59 1.65 1.51 1.36 1.26 1.23
0.53 0.50 0.61 0.70 0.81 1.07 1.37 1.62 1.77 2.02 2.10 2.14 2.09 2.10 2.14 2.08 1.97 2.02 2.15 2.31 2.32 2.40 2.54 2.59 2.51 2.62 2.44 2.03 1.91 2.23 2.17 2.01 1.79 1.43 1.37 1.45 1.60 1.67 1.70 1.68 1.51 1.26 1.25
0.43 0.40 0.47 0.58 0.81 1.17 1.51 1.72 1.92 2.24 2.29 2.19 2.19 2.15 2.16 2.19 2.17 2.27 2.31 2.41 2.42 2.42 2.53 2.61 2.56 2.72 2.83 2.46 2.13 1.92 1.76 1.76 1.93 1.76 1.52 1.47 1.63 1.65 1.64 1.66 1.70 1.53 1.36
0.44 0.44 0.48 0.64 0.90 1.21 1.44 1.69 2.03 2.22 2.28 2.36 2.24 2.20 2.19 2.24 2.26 2.31 2.40 2.57 2.55 2.53 2.50 2.69 2.73 2.83 2.76 2.71 2.57 2.39 2.21 1.98 1.67 1.81 1.86 1.70 1.59 1.48 1.52 1.65 1.81 1.76 1.58
0.45 0.51 0.62 0.79 0.96 1.22 1.43 1.67 1.85 2.05 2.16 2.25 2.30 2.21 2.17 2.24 2.33 2.19 2.12 2.30 2.36 2.40 2.39 2.57 2.73 2.86 2.83 2.87 2.79 2.50 2.46 2.35 2.03 2.00 1.86 1.72 1.74 1.55 1.46 1.54 1.60 1.60 1.62

GEFSSE_prec_meanprecacc_246.txt.gz
Total_Precipitation_Accumulation
1.56 1.39 2.34 2.53 2.30 2.06 1.94 1.89 1.91 1.91 1.93 1.95 1.73 1.44 1.26 1.17 1.08 1.00 0.89 0.86 0.91 0.90 0.85 0.82 0.84 0.81 0.76 0.74 0.72 0.76 0.86 0.97 1.02 1.03 1.08 1.18 1.11 1.14 1.41 1.75 1.91 2.18 1.84
1.28 1.36 2.37 2.57 2.26 1.91 1.76 1.81 1.93 1.91 1.90 1.81 1.70 1.47 1.31 1.15 1.05 0.97 0.85 0.79 0.76 0.77 0.73 0.79 0.88 0.88 0.88 0.91 0.95 0.99 0.98 0.96 1.07 1.16 1.34 1.41 1.30 1.29 1.33 1.63 1.77 2.04 1.89
1.32 1.43 2.06 2.56 2.30 1.99 1.80 1.85 1.97 1.90 1.92 1.78 1.72 1.53 1.36 1.15 1.06 0.99 0.90 0.84 0.83 0.77 0.72 0.79 0.94 0.93 0.96 1.00 1.05 1.12 1.10 1.06 1.15 1.33 1.75 2.37 1.78 1.44 1.44 1.54 1.66 1.61 1.75
1.25 1.31 1.82 2.61 2.29 2.12 2.00 2.03 1.96 1.93 1.97 1.76 1.64 1.51 1.37 1.23 1.19 1.15 1.21 1.22 1.05 0.87 0.80 0.82 0.96 0.93 0.90 0.98 1.08 1.07 1.07 1.12 1.30 1.38 1.80 2.40 2.20 1.59 1.58 1.69 1.78 1.57 1.64
1.23 1.36 2.09 2.62 2.28 2.16 2.10 2.06 1.91 1.99 2.02 1.80 1.59 1.41 1.29 1.29 1.42 1.47 1.43 1.29 1.08 0.90 0.83 0.83 0.90 0.95 0.91 0.89 1.01 1.05 1.10 1.19 1.32 1.31 1.74 2.28 2.51 2.03 1.67 1.68 1.74 1.58 1.62
1.44 1.47 2.12 2.61 2.37 2.18 2.14 2.04 1.94 1.94 2.01 1.91 1.63 1.42 1.30 1.31 1.33 1.34 1.35 1.25 1.06 0.91 0.79 0.86 0.94 0.95 0.94 0.93 0.97 1.04 1.08 1.16 1.10 1.29 1.75 2.12 2.42 2.01 1.56 1.55 1.72 1.69 1.72
1.37 1.46 1.86 2.35 2.22 2.06 2.02 2.00 2.02 2.00 1.97 1.94 1.68 1.50 1.45 1.37 1.26 1.26 1.25 1.17 0.98 0.86 0.80 0.90 0.98 0.96 0.95 0.99 0.96 0.94 1.02 0.94 0.83 1.17 1.58 1.97 2.02 1.84 1.59 1.65 1.85 1.82 1.92
1.36 1.35 1.58 2.05 2.16 2.03 1.98 1.90 1.95 1.98 1.97 1.88 1.56 1.43 1.39 1.38 1.31 1.24 1.21 1.16 1.01 0.99 0.95 0.91 0.90 0.93 0.98 0.99 0.97 0.96 0.98 0.77 0.64 0.91 1.28 1.76 2.01 1.92 1.71 1.68 1.85 1.93 2.07
1.51 1.45 1.54 1.80 1.96 2.23 2.23 2.06 2.01 1.99 1.96 1.86 1.55 1.42 1.35 1.27 1.13 1.10 1.10 1.04 1.04 1.07 0.98 0.88 0.84 0.85 0.91 0.96 0.96 0.98 0.94 0.76 0.69 0.88 0.93 1.50 1.94 1.96 1.79 1.75 1.80 1.91 2.13
1.58 1.54 1.50 1.59 1.63 1.82 1.99 2.13 2.13 2.06 2.00 1.91 1.62 1.46 1.41 1.22 1.05 1.01 0.94 0.97 1.01 1.09 1.12 1.00 0.93 0.93 0.95 1.03 1.03 0.99 0.93 0.72 0.67 0.74 0.99 1.31 1.94 1.98 1.80 1.80 1.81 1.83 1.94
1.47 1.40 1.34 1.37 1.50 1.65 1.84 2.01 2.15 2.07 2.01 1.90 1.67 1.55 1.45 1.15 0.99 0.94 0.88 1.10 1.08 1.11 1.15 1.15 1.18 1.16 1.05 1.00 1.07 0.96 0.73 0.68 0.85 0.90 1.03 1.40 2.04 2.13 1.97 1.85 1.86 1.80 1.71
1.48 1.32 1.15 1.17 1.27 1.38 1.50 1.91 1.93 1.67 1.60 1.52 1.67 1.55 1.36 1.29 1.15 0.79 0.84 1.10 1.25 1.27 1.19 1.16 1.25 1.11 0.85 0.73 0.81 0.75 0.58 0.67 0.80 0.86 0.98 1.61 2.09 2.11 1.89 1.78 1.84 1.74 1.58
1.30 1.22 1.11 1.07 1.02 1.03 1.15 1.39 1.55 1.57 1.60 1.49 1.44 1.36 1.32 1.18 0.98 0.80 0.85 0.87 0.91 0.97 0.89 0.92 0.89 0.74 0.68 0.73 0.72 0.61 0.55 0.64 0.75 0.87 1.10 1.73 2.18 2.16 1.86 1.70 1.71 1.64 1.56
1.11 1.10 1.05 0.95 0.87 0.79 0.82 0.89 1.00 1.18 1.31 1.32 1.15 1.04 1.08 1.10 0.98 0.82 0.83 0.84 0.83 0.86 0.96 0.98 0.97 0.89 0.83 0.81 0.76 0.76 0.75 0.78 0.81 0.91 1.21 1.62 2.15 2.23 2.08 1.95 1.86 1.78 1.69
1.04 1.04 0.96 0.82 0.79 0.73 0.73 0.75 0.72 0.93 1.13 1.22 1.21 1.04 0.97 0.99 0.99 0.93 0.80 0.81 0.76 0.80 0.87 0.91 0.92 0.97 1.03 0.99 0.95 0.97 1.00 0.94 0.86 0.84 1.04 1.42 1.98 2.47 2.63 2.60 2.27 2.08 1.97
0.87 0.99 0.93 0.86 0.86 0.78 0.69 0.69 0.68 0.78 0.92 0.95 1.09 1.10 1.02 0.94 0.90 0.95 0.90 0.90 0.90 0.88 0.86 0.84 0.83 0.97 1.03 1.07 1.04 1.00 0.97 0.87 0.86 0.94 1.10 1.20 1.33 1.80 2.58 2.82 2.65 2.44 2.27
0.77 0.80 0.77 0.77 0.81 0.80 0.78 0.73 0.74 0.86 0.89 0.90 0.95 0.94 0.99 0.91 0.85 0.91 0.93 0.93 0.95 0.95 0.91 0.91 0.93 1.02 1.05 1.15 1.18 1.02 0.95 0.90 0.85 0.91 1.00 1.10 0.94 1.02 1.64 2.33 2.60 2.49 2.47
0.69 0.68 0.71 0.64 0.72 0.83 0.90 0.90 0.95 0.99 0.99 1.03 0.96 0.90 0.90 0.85 0.84 0.94 0.97 0.98 1.03 0.94 0.91 0.99 1.07 1.18 1.21 1.27 1.28 1.09 0.89 0.98 0.93 0.92 1.04 1.08 1.06 0.99 1.17 1.46 1.80 2.08 2.49
0.69 0.69 0.72 0.70 0.75 0.85 0.91 1.02 1.09 1.14 1.20 1.30 1.23 1.18 1.13 1.01 1.02 1.11 1.15 1.15 1.15 1.16 1.09 1.00 1.05 1.21 1.36 1.37 1.19 1.09 0.99 1.01 1.03 0.99 1.16 1.19 1.18 1.17 1.22 1.15 1.21 1.47 2.00
0.76 0.73 0.77 0.83 0.88 1.01 1.17 1.35 1.52 1.60 1.74 1.90 1.83 1.69 1.49 1.32 1.28 1.42 1.40 1.31 1.36 1.47 1.52 1.34 1.39 1.34 1.31 1.39 1.22 1.16 1.14 1.08 1.08 1.14 1.20 1.32 1.44 1.29 1.29 1.22 1.15 1.02 1.33
0.77 0.75 0.74 0.79 0.86 0.98 1.19 1.47 1.89 2.09 2.19 2.15 2.15 2.06 1.83 1.61 1.61 1.81 1.80 1.74 1.74 1.75 1.72 1.66 1.81 1.75 1.47 1.39 1.60 1.59 1.43 1.24 1.18 1.18 1.24 1.48 1.59 1.50 1.53 1.46 1.34 1.18 1.08
0.65 0.68 0.79 0.78 0.82 0.93 1.19 1.47 1.80 2.12 2.16 2.16 2.16 2.12 2.00 1.86 1.83 1.88 2.10 2.20 2.16 2.31 2.29 2.09 2.23 2.26 1.87 1.63 1.93 2.26 1.97 1.73 1.31 1.22 1.35 1.41 1.50 1.59 1.65 1.51 1.36 1.26 1.24
0.57 0.54 0.65 0.75 0.86 1.11 1.40 1.67 1.83 2.07 2.14 2.17 2.12 2.14 2.17 2.10 2.00 2.04 2.17 2.33 2.33 2.42 2.56 2.61 2.52 2.63 2.45 2.04 1.91 2.24 2.18 2.01 1.79 1.44 1.37 1.45 1.60 1.67 1.70 1.69 1.52 1.27 1.26
0.47 0.44 0.51 0.62 0.85 1.21 1.55 1.77 1.98 2.30 2.34 2.24 2.23 2.19 2.20 2.22 2.20 2.30 2.34 2.43 2.44 2.44 2.54 2.63 2.56 2.72 2.84 2.46 2.13 1.92 1.77 1.77 1.93 1.76 1.52 1.47 1.63 1.65 1.65 1.68 1.70 1.54 1.37
0.47 0.47 0.51 0.67 0.93 1.24 1.47 1.73 2.07 2.27 2.33 2.41 2.29 2.24 2.24 2.28 2.29 2.34 2.42 2.60 2.58 2.56 2.53 2.71 2.74 2.83 2.77 2.71 2.57 2.39 2.21 1.98 1.67 1.81 1.86 1.70 1.59 1.48 1.53 1.66 1.81 1.76 1.58
0.46 0.53 0.64 0.81 0.98 1.24 1.45 1.69 1.89 2.09 2.22 2.32 2.37 2.27 2.23 2.29 2.37 2.23 2.15 2.33 2.40 2.45 2.45 2.60 2.74 2.87 2.84 2.88 2.80 2.51 2.47 2.35 2.03 2.00 1.87 1.73 1.74 1.56 1.48 1.55 1.61 1.61 1.63

GEFSSE_prec_meanprecacc_252.txt.gz
Total_Precipitation_Accumulation
1.59 1.43 2.42 2.63 2.40 2.15 2.03 1.99 1.98 1.98 2.01 2.01 1.77 1.50 1.33 1.22 1.11 1.04 0.93 0.90 0.95 0.92 0.88 0.85 0.87 0.84 0.79 0.78 0.75 0.80 0.91 1.02 1.06 1.06 1.12 1.21 1.13 1.16 1.43 1.79 1.95 2.23 1.87
1.31 1.42 2.47 2.66 2.35 2.01 1.87 1.90 2.00 1.98 1.96 1.88 1.77 1.55 1.39 1.21 1.09 1.03 0.90 0.83 0.81 0.80 0.75 0.81 0.91 0.92 0.92 0.95 1.00 1.03 1.04 1.02 1.12 1.20 1.37 1.44 1.32 1.31 1.37 1.69 1.81 2.12 1.97
1.34 1.46 2.11 2.64 2.37 2.07 1.90 1.94 2.06 1.98 1.98 1.84 1.78 1.58 1.41 1.20 1.11 1.04 0.94 0.88 0.87 0.80 0.74 0.80 0.98 0.97 1.00 1.04 1.09 1.19 1.17 1.13 1.21 1.36 1.77 2.40 1.81 1.47 1.49 1.59 1.71 1.66 1.81
1.26 1.33 1.85 2.67 2.35 2.20 2.09 2.14 2.07 2.02 2.05 1.83 1.68 1.55 1.42 1.29 1.24 1.19 1.25 1.25 1.08 0.91 0.83 0.84 1.01 0.99 0.94 1.02 1.13 1.13 1.13 1.17 1.34 1.41 1.81 2.42 2.23 1.62 1.64 1.73 1.83 1.62 1.70
1.25 1.38 2.15 2.72 2.38 2.25 2.21 2.17 2.02 2.07 2.13 1.91 1.66 1.47 1.34 1.35 1.51 1.54 1.48 1.34 1.12 0.93 0.85 0.85 0.95 0.99 0.94 0.93 1.05 1.09 1.14 1.22 1.34 1.33 1.76 2.32 2.56 2.09 1.71 1.72 1.79 1.64 1.68
1.46 1.49 2.17 2.72 2.50 2.31 2.25 2.15 2.04 2.04 2.12 2.03 1.73 1.49 1.37 1.38 1.43 1.43 1.42 1.31 1.12 0.94 0.82 0.89 0.97 0.98 0.97 0.97 1.01 1.07 1.12 1.18 1.11 1.31 1.77 2.15 2.48 2.06 1.59 1.57 1.76 1.74 1.78
1.39 1.48 1.91 2.45 2.37 2.20 2.14 2.09 2.12 2.08 2.06 2.04 1.77 1.57 1.52 1.45 1.37 1.36 1.34 1.26 1.03 0.91 0.83 0.93 1.01 0.99 0.97 1.02 0.99 0.97 1.04 0.94 0.84 1.18 1.60 2.01 2.06 1.89 1.65 1.70 1.89 1.86 1.98
1.38 1.37 1.60 2.11 2.25 2.13 2.10 2.01 2.06 2.09 2.08 1.98 1.63 1.49 1.44 1.46 1.42 1.32 1.27 1.23 1.06 1.04 1.00 0.96 0.94 0.97 1.01 1.02 1.00 0.99 1.00 0.78 0.64 0.92 1.32 1.82 2.07 1.98 1.78 1.74 1.90 1.98 2.12
1.53 1.47 1.56 1.84 2.02 2.30 2.31 2.15 2.13 2.12 2.10 1.96 1.63 1.49 1.42 1.37 1.23 1.17 1.15 1.09 1.08 1.12 1.03 0.92 0.88 0.88 0.94 0.99 1.00 1.02 0.97 0.77 0.69 0.90 0.96 1.57 2.02 2.03 1.86 1.80 1.86 1.96 2.17
1.60 1.56 1.51 1.63 1.70 1.87 2.05 2.22 2.24 2.18 2.10 1.98 1.69 1.54 1.48 1.31 1.13 1.07 0.98 1.02 1.06 1.13 1.17 1.05 0.98 0.98 0.98 1.06 1.07 1.02 0.95 0.73 0.69 0.77 1.04 1.40 2.03 2.06 1.87 1.85 1.85 1.86 1.99
1.49 1.41 1.35 1.39 1.53 1.68 1.89 2.07 2.23 2.17 2.09 1.96 1.72 1.62 1.53 1.23 1.06 1.00 0.93 1.15 1.12 1.14 1.20 1.21 1.23 1.20 1.08 1.04 1.09 0.97 0.73 0.69 0.87 0.96 1.12 1.51 2.13 2.20 2.03 1.90 1.90 1.84 1.76
1.49 1.33 1.17 1.19 1.29 1.41 1.54 1.96 1.99 1.73 1.65 1.55 1.70 1.59 1.41 1.35 1.20 0.84 0.91 1.16 1.28 1.30 1.24 1.20 1.28 1.13 0.87 0.75 0.82 0.75 0.59 0.68 0.83 0.91 1.07 1.72 2.18 2.19 1.95 1.84 1.90 1.79 1.62
1.32 1.23 1.13 1.09 1.05 1.04 1.17 1.42 1.59 1.61 1.63 1.51 1.46 1.39 1.35 1.22 1.02 0.84 0.90 0.91 0.95 0.99 0.91 0.94 0.92 0.76 0.69 0.73 0.73 0.61 0.56 0.65 0.78 0.91 1.16 1.82 2.29 2.27 1.94 1.79 1.80 1.71 1.63
1.13 1.13 1.07 0.96 0.89 0.81 0.84 0.91 1.03 1.20 1.33 1.35 1.18 1.06 1.10 1.13 1.02 0.85 0.86 0.87 0.87 0.89 0.99 1.00 0.99 0.90 0.85 0.83 0.77 0.77 0.76 0.80 0.83 0.94 1.25 1.69 2.27 2.36 2.21 2.10 1.98 1.88 1.76
1.06 1.06 0.98 0.84 0.80 0.76 0.76 0.77 0.74 0.96 1.15 1.25 1.24 1.07 1.00 1.01 1.02 0.96 0.82 0.85 0.79 0.82 0.89 0.94 0.95 1.00 1.07 1.02 0.97 0.98 1.01 0.96 0.86 0.85 1.07 1.48 2.09 2.62 2.77 2.70 2.37 2.17 2.02
0.88 1.00 0.95 0.87 0.88 0.80 0.71 0.70 0.70 0.80 0.94 0.98 1.12 1.13 1.05 0.97 0.93 0.96 0.93 0.95 0.94 0.90 0.89 0.88 0.87 1.00 1.07 1.10 1.06 1.01 0.98 0.88 0.86 0.94 1.12 1.23 1.38 1.89 2.67 2.90 2.73 2.51 2.33
0.79 0.81 0.78 0.78 0.83 0.81 0.79 0.74 0.75 0.87 0.91 0.92 0.98 0.97 1.03 0.94 0.88 0.93 0.95 0.98 0.98 0.98 0.95 0.96 0.97 1.05 1.08 1.17 1.19 1.03 0.96 0.91 0.86 0.91 1.01 1.13 0.97 1.07 1.70 2.41 2.69 2.56 2.52
0.74 0.71 0.72 0.65 0.73 0.84 0.92 0.92 0.97 1.01 1.01 1.06 1.00 0.94 0.94 0.89 0.87 0.96 0.99 1.01 1.06 0.98 0.95 1.05 1.11 1.20 1.23 1.28 1.29 1.11 0.91 1.00 0.94 0.93 1.06 1.10 1.08 1.01 1.19 1.50 1.85 2.13 2.54
0.74 0.74 0.75 0.72 0.77 0.87 0.93 1.04 1.12 1.17 1.23 1.33 1.27 1.22 1.16 1.05 1.05 1.15 1.19 1.19 1.20 1.21 1.13 1.04 1.09 1.23 1.38 1.38 1.20 1.11 1.01 1.04 1.06 1.01 1.19 1.21 1.19 1.18 1.23 1.16 1.23 1.49 2.02
0.80 0.79 0.82 0.86 0.90 1.04 1.20 1.39 1.57 1.65 1.78 1.93 1.86 1.72 1.52 1.35 1.31 1.45 1.44 1.33 1.39 1.50 1.56 1.37 1.42 1.37 1.33 1.40 1.24 1.19 1.17 1.11 1.10 1.16 1.21 1.34 1.45 1.30 1.30 1.23 1.16 1.03 1.34
0.80 0.79 0.78 0.83 0.90 1.01 1.23 1.52 1.93 2.15 2.25 2.21 2.20 2.10 1.86 1.64 1.64 1.84 1.84 1.78 1.77 1.79 1.75 1.68 1.83 1.77 1.50 1.41 1.62 1.61 1.45 1.26 1.20 1.19 1.25 1.49 1.59 1.51 1.54 1.46 1.35 1.19 1.09
0.67 0.70 0.83 0.85 0.90 1.00 1.25 1.53 1.86 2.18 2.23 2.22 2.22 2.17 2.04 1.89 1.85 1.90 2.13 2.24 2.20 2.35 2.33 2.12 2.25 2.28 1.89 1.65 1.94 2.28 1.98 1.75 1.32 1.23 1.36 1.42 1.51 1.60 1.65 1.51 1.37 1.27 1.25
0.58 0.55 0.67 0.80 0.95 1.21 1.51 1.78 1.93 2.14 2.20 2.23 2.19 2.19 2.21 2.13 2.02 2.07 2.20 2.36 2.37 2.46 2.61 2.66 2.56 2.66 2.48 2.05 1.92 2.25 2.19 2.02 1.81 1.45 1.38 1.46 1.61 1.67 1.71 1.69 1.52 1.27 1.26
0.48 0.47 0.54 0.67 0.93 1.30 1.64 1.86 2.08 2.42 2.46 2.34 2.32 2.27 2.28 2.28 2.24 2.33 2.37 2.46 2.47 2.48 2.60 2.70 2.62 2.76 2.87 2.48 2.14 1.93 1.78 1.78 1.94 1.77 1.54 1.48 1.63 1.66 1.65 1.68 1.70 1.54 1.37
0.48 0.50 0.55 0.73 1.01 1.32 1.53 1.78 2.12 2.33 2.41 2.48 2.38 2.35 2.33 2.36 2.35 2.40 2.47 2.63 2.63 2.61 2.57 2.77 2.82 2.88 2.80 2.73 2.58 2.40 2.23 1.99 1.68 1.82 1.87 1.71 1.60 1.49 1.53 1.67 1.82 1.77 1.59
0.47 0.55 0.67 0.86 1.04 1.29 1.49 1.74 1.93 2.13 2.25 2.34 2.39 2.32 2.29 2.36 2.44 2.30 2.22 2.39 2.47 2.50 2.48 2.65 2.79 2.90 2.86 2.89 2.82 2.51 2.48 2.38 2.05 2.02 1.88 1.74 1.77 1.58 1.49 1.56 1.61 1.62 1.63